Change the Weather History Date:

Saturday, March 16, 2013

  Actual Average Record
Temperature  
Mean Temperature 16 °F -  
Max Temperature 23 °F 29 °F 41 °F (2003)
Min Temperature 8 °F 14 °F 3 °F (1997)
Degree Days  
Heating Degree Days 50    
Moisture  
Dew Point 6 °F    
Average Humidity 64    
Maximum Humidity 79    
Minimum Humidity 53    
Precipitation  
Precipitation 0.00 in - - ()
Sea Level Pressure  
Sea Level Pressure 29.90 in    
Wind  
Wind Speed 6 mph ()    
Max Wind Speed 12 mph    
Max Gust Speed -    
Averages and records for this station are not official NWS values.
T = Trace of Precipitation, MM = Missing Value Source: Averaged Metar Reports

Daily Weather History Graph

Daily Weather History Graph

Search for Another Location

Airport or City:

Trip Planner

Search our weather history database for the weather conditions in past years. The results will help you decide how hot, cold, wet, or windy it might be!

Date:

Astronomy

Mar. 16, 2013 Rise Set
Actual Time 7:06 AM EDT 7:03 PM EDT
Civil Twilight 6:36 AM EDT 7:33 PM EDT
Nautical Twilight 6:02 AM EDT 8:08 PM EDT
Astronomical Twilight 5:26 AM EDT 8:43 PM EDT
Moon 9:19 AM EDT (3/16) No Moon Set
Length of Visible Light 12h 56m
Length of Day
11h 57m
Waxing Crescent, 23% of the Moon is Illuminated
Mar 16
Waxing Crescent
Mar 19
First Quarter
Mar 27
Full
Apr 3
Last Quarter
Apr 10
New

Hourly Weather History & Observations

Time (EDT) Temp. Windchill Dew Point Humidity Pressure Visibility Wind Dir Wind Speed Gust Speed Precip Events Conditions
12:00 AM 23.0 °F 11.7 °F 15.8 °F 74% 29.79 in 25.0 mi NNW 11.5 mph - N/A   Mostly Cloudy
1:00 AM 19.4 °F 9.5 °F 12.2 °F 74% 29.83 in 25.0 mi NNW 8.1 mph - N/A   Partly Cloudy
2:00 AM 17.6 °F 9.3 °F 10.4 °F 73% 29.85 in 25.0 mi NW 5.8 mph - N/A   Partly Cloudy
3:00 AM 15.8 °F 10.2 °F 6.8 °F 68% 29.89 in 25.0 mi West 3.5 mph - N/A   Clear
4:00 AM 17.6 °F 7.3 °F 6.8 °F 63% 29.89 in 25.0 mi NNW 8.1 mph - N/A   Mostly Cloudy
5:00 AM 15.8 °F 4.2 °F 6.8 °F 68% 29.89 in 25.0 mi NNW 9.2 mph - N/A   Mostly Cloudy
6:00 AM 14.0 °F 8.2 °F 5.0 °F 67% 29.91 in 25.0 mi North 3.5 mph - N/A   Scattered Clouds
7:00 AM 10.4 °F 4.0 °F 5.0 °F 79% 29.92 in 45.0 mi NNW 3.5 mph - N/A   Mostly Cloudy
8:00 AM 8.6 °F 2.0 °F 3.2 °F 79% 29.93 in 45.0 mi NW 3.5 mph - N/A   Scattered Clouds
9:00 AM 14.0 °F 5.1 °F 6.8 °F 73% 29.94 in 45.0 mi NNW 5.8 mph - N/A   Mostly Cloudy
10:00 AM 15.8 °F 7.2 °F 6.8 °F 68% 29.94 in 45.0 mi North 5.8 mph - N/A   Mostly Cloudy
11:00 AM 17.6 °F 12.3 °F 6.8 °F 63% 29.93 in 45.0 mi ESE 3.5 mph - N/A   Mostly Cloudy
12:00 PM 17.6 °F 7.3 °F 6.8 °F 63% 29.93 in 40.0 mi SSW 8.1 mph - N/A Snow Light Snow Showers
1:00 PM 19.4 °F 11.5 °F 6.8 °F 58% 29.92 in 40.0 mi SSW 5.8 mph - N/A Snow Light Snow Showers
1:19 PM 19.4 °F 9.5 °F 6.8 °F 58% 29.92 in 45.0 mi SW 8.1 mph - N/A   Mostly Cloudy
2:00 PM 19.4 °F 7.9 °F 8.6 °F 63% 29.92 in 45.0 mi SW 10.4 mph - N/A   Overcast
3:00 PM 21.2 °F 10.9 °F 8.6 °F 58% 29.90 in 45.0 mi SW 9.2 mph - N/A   Mostly Cloudy
4:00 PM 19.4 °F 7.9 °F 6.8 °F 58% 29.90 in 45.0 mi SW 10.4 mph - N/A   Overcast
5:00 PM 19.4 °F 7.9 °F 5.0 °F 54% 29.90 in 40.0 mi SW 10.4 mph - N/A   Overcast
6:00 PM 19.4 °F 9.5 °F 5.0 °F 54% 29.90 in 40.0 mi SW 8.1 mph - N/A   Mostly Cloudy
7:00 PM 17.6 °F 9.3 °F 3.2 °F 53% 29.90 in 25.0 mi SW 5.8 mph - N/A   Scattered Clouds
8:00 PM 15.8 °F 6.1 °F 3.2 °F 58% 29.91 in 25.0 mi SW 6.9 mph - N/A   Partly Cloudy
9:00 PM 14.0 °F 8.2 °F 3.2 °F 62% 29.92 in 25.0 mi WSW 3.5 mph - N/A   Partly Cloudy
10:00 PM 14.0 °F 6.5 °F 1.4 °F 57% 29.94 in 25.0 mi WSW 4.6 mph - N/A   Clear
11:00 PM 12.2 °F 6.1 °F 1.4 °F 62% 29.94 in 25.0 mi WSW 3.5 mph - N/A   Clear